Погода в Святице

Россия / Кировская область     58°11′48″N   51°35′07″E
темп.,
°C
ветер,
м/с
пор.,
м/с
влажн.,
%
обл.,
%
осадки,
мм/ч
давл.,
гПа
погр.,
м
8 мая, сб
сб800:00+9ююз4985100 0.1 1013227
03:00+8сз3789100 0.2 1015406
06:00+8ссз3591100 0.6 1016369
09:00+11ссв2369100 1.0 1018926
12:00+13всв325590 0.1 10171474
15:00+14вюв335429 0.1 10171416
18:00+12юв35695 0.0 1016414
21:00+9юв35835 0.0 101673
9 мая, вс
вс900:00+8вюв35925 0.0 101686
03:00+7юв399326 0.0 1016147
06:00+11юв51181100 0.0 1015324
09:00+17ююв79568 0.0 1015873
12:00+20ююв684485 0.0 10141869
15:00+21ююв684187 0.0 10142363
18:00+18ююв51156100 0.0 1014328
21:00+15ююв61560100 0.0 1015368
10 мая, пн
пн1000:00+14ююв6166038 0.0 1014381
03:00+12ю4978100 0.4 1016201
06:00+13ююз4986100 0.6 1018544
09:00+12з4589100 1.3 1020465
12:00+9зсз4793100 3.4 1023460
15:00+9сз4793100 4.9 1025462
18:00+8ссз588685 1.5 1027689
21:00+5с35910 1.5 102992
11 мая, вт
вт1100:00+4с23935 0.0 103049
03:00+3с22923 0.0 103132
06:00+7с23805 0.0 1032188
09:00+12с235548 0.0 1033821
12:00+14сз234133 0.0 10321448
15:00+16сз333911 0.0 10311375
18:00+15з11535 0.0 103112
21:00+10зюз226226 0.0 103212
12 мая, ср
ср1200:00+9зюз226763 0.0 103314
03:00+8з2270100 0.0 103313
06:00+11зсз23661 0.0 1033128
09:00+17з22545 0.0 1032555
12:00+20з33495 0.0 10311034
15:00+21з34475 0.0 10301225
18:00+19зюз226050 0.0 103045
21:00+14з337089 0.0 103022